Regional Weather Roundup
Issued by NWS

Home | Current Version | Previous Version | Graphics & Text | Print | Product List | Glossary On
Versions: 1 2 3 4 5 6 7 8 9 10 11 12 13 14 15 16 17 18 19 20 21 22 23 24 25 26 27 28 29 30 31 32 33 34 35 36 37 38 39 40 41 42 43 44 45 46 47 48 49 50
000
ASUS44 KMEG 261500
RWRTN
TENNESSEE HOURLY STATE WEATHER ROUNDUP
NATIONAL WEATHER SERVICE MEMPHIS TN
1000 AM CDT THU MAR 26 2015

TNZ002-004-019-021-049-052-054-088>092-261600-
WEST TENNESSEE

CITY           SKY/WX    TMP DP  RH WIND       PRES   REMARKS
MEMPHIS INTL   PTSUNNY   67  56  67 NW8       29.89R
NWS MEMPHIS      N/A     66 N/A N/A MISG        N/A
JACKSON        CLOUDY    60  56  86 SE3       29.85F
DYERSBURG      CLOUDY    52  37  58 N14G21    29.94R
UNION CITY     CLOUDY    46  46 100 N14       29.95R
PARIS          CLOUDY    48  46  93 N7        29.93S
LEXINGTON      MOSUNNY   64  52  63 VRB3      29.87F
SAVANNAH       PTSUNNY   64  57  77 VRB5      29.90F
$$

TNZ008-025-027-028-033-062-065-066-261600-
NORTH MIDDLE TENNESSEE

CITY           SKY/WX    TMP DP  RH WIND       PRES   REMARKS
NASHVILLE      PTSUNNY   66  59  78 W6        29.87F
CLARKSVILLE    CLOUDY    50  48  93 N14       29.93R
COOKEVILLE     PTSUNNY   70  57  64 SW15      29.87S
CROSSVILLE     PTSUNNY   64  55  72 SW13G21   29.90F
$$

TNZ061-075-076-078-094-096-097-261600-
SOUTH MIDDLE TENNESSEE

CITY           SKY/WX    TMP DP  RH WIND       PRES   REMARKS
FAYETTEVILLE   SUNNY     64  55  72 SW13      29.90F
TULLAHOMA      MOSUNNY   66  55  68 SW9       29.90F
WINCHESTER     MOSUNNY   66  57  72 SW13      29.92S
COLUMBIA       CLOUDY    66  66 100 SW12      29.87S
SHELBYVILLE    MOSUNNY   70  59  68 SW12      29.89F
$$

TNZ017-018-042-046-047-261600-
NORTHEAST TENNESSEE

CITY           SKY/WX    TMP DP  RH WIND       PRES   REMARKS
TRI CITIES     PTSUNNY   68  52  56 SW20G26   29.89F
ELIZABETHTON   MOSUNNY   68  52  56 VRB5      29.89F
$$

TNZ012-013-036-069-073-074-261600-
CENTRAL EAST TENNESSEE

CITY           SKY/WX    TMP DP  RH WIND       PRES   REMARKS
KNOXVILLE      PTSUNNY   67  56  67 SW22G31   29.89F
OAK RIDGE      CLOUDY    63  59  87 VRB5      29.90F
GATLINBURG     CLOUDY    70  52  52 SW15      29.88F
$$

TNZ083-085-099-261600-
SOUTHEAST TENNESSEE

CITY           SKY/WX    TMP DP  RH WIND       PRES   REMARKS
CHATTANOOGA    PTSUNNY   68  56  65 S10       29.92F
$$

SKY/WX REPORTED AS FAIR MEANS FEW OR NO CLOUDS BELOW
12 THOUSAND FEET.



USA.gov is the U.S. government's official web portal to all federal, state and local government web resources and services.